User: anonymous   Login
Location: Caltech
(34.1382°N, 118.1253°W)
Time: 14:28:50
(UTC-07:00)
Language:

UOSAT-12 - Orbit

View from above orbital plane
View from above orbital plane
View from above satellite
View from above satellite

Ground track
Ground track

The orbit data is extracted from the following two-line orbital elements,

1 25693U 99021A   15183.18957095 -.00000030  00000-0  15315-4 0  9991
2 25693 064.5545 172.0186 0041028 238.7381 200.5589 14.80470639874165
Epoch (UTC): 02 July 2015 04:32:58
Eccentricity: 0.0041028
inclination: 64.5545°
perigee height: 599 km
apogee height: 656 km
right ascension of ascending node: 172.0186°
argument of perigee: 238.7381°
revolutions per day: 14.80470639
mean anomaly at epoch: 200.5589°
orbit number at epoch: 87416

The dashed part of the orbit path shows where the satellite is in the earth's shadow,  

DLR